Location: Champseau
(45.8333°N, 1.7667°E)
Time: 16:50:48
(UTC+00:00)

Cosmos 1633 - Pass Details

Date: 18 April 2021
Orbit: 460 x 478 km, 82.5° (Epoch: 12 May)

Event Time Altitude Azimuth Distance (km) Brightness Sun altitude
Rises 20:58:31 0° 349° (N) 2,539 7.1 -21.0°
Reaches altitude 10° 21:00:37 10° 348° (NNW) 1,653 6.0 -21.2°
Maximum altitude 21:04:14 75° 263° (W) 495 2.5 -21.7°
Enters shadow 21:04:17 75° 252° (WSW) 496 2.5 -21.7°
